Location: City of Clear Lake
(43.1347°N, 93.3740°W)
Time: 01:13:44
(UTC+00:00)

ACS3 Solar Sail - Visible Passes

Search period start: 06 October 2024 00:00
Search period end: 16 October 2024 00:00
Orbit: 961 x 1037 km, 97.4° (Epoch: 05 October)

Date Brightness Start Highest point End Pass type
(mag) Time Alt. Az. Time Alt. Az. Time Alt. Az.
06 Oct 2.4 01:17:38 26° ESE 01:20:21 37° ENE 01:26:05 10° N visible
06 Oct 3.0 03:02:48 35° WSW 03:04:11 39° W 03:10:08 10° NNW visible
07 Oct 3.6 00:07:30 10° ENE 00:09:22 11° NE 00:11:13 10° NE visible
07 Oct 1.8 01:50:03 43° SE 01:52:04 63° ENE 01:58:20 10° N visible
07 Oct 3.8 03:35:13 21° WSW 03:36:26 22° W 03:41:15 10° NW visible
08 Oct 3.1 00:37:17 13° E 00:40:41 20° ENE 00:45:04 10° NNE visible
08 Oct 1.9 02:22:27 55° S 02:23:56 76° WSW 02:30:19 10° NNW visible
08 Oct 4.4 04:07:37 11° W 04:08:50 11° W 04:10:50 10° WNW visible
09 Oct 2.5 01:09:40 25° ESE 01:12:11 34° ENE 01:17:45 10° N visible
09 Oct 2.8 02:54:50 40° WSW 02:55:57 43° W 03:01:58 10° NNW visible
10 Oct 1.9 01:42:02 43° ESE 01:43:50 57° ENE 01:50:02 10° N visible
10 Oct 3.6 03:27:12 24° WSW 03:28:06 24° W 03:33:09 10° NW visible
11 Oct 3.2 00:29:14 12° E 00:32:28 18° ENE 00:36:31 10° NNE visible
11 Oct 1.8 02:14:24 61° S 02:15:38 84° WSW 02:21:59 10° NNW visible
11 Oct 4.3 03:59:34 13° W 04:00:25 13° W 04:03:12 10° WNW visible
12 Oct 2.6 01:01:34 24° E 01:03:54 30° ENE 01:09:15 10° N visible
12 Oct 2.6 02:46:44 45° WSW 02:47:33 48° W 02:53:39 10° NNW visible
13 Oct 2.0 01:33:54 42° ESE 01:35:28 52° ENE 01:41:33 10° N visible
13 Oct 3.5 03:19:04 27° W 03:19:38 27° W 03:24:54 10° NW visible
14 Oct 3.3 00:21:02 12° E 00:24:07 16° ENE 00:27:47 10° NNE visible
14 Oct 1.7 02:06:13 67° SSE 02:07:11 89° ENE 02:13:31 10° NNW visible
14 Oct 4.2 03:51:22 15° W 03:51:52 15° W 03:55:14 10° NW visible
15 Oct 2.7 00:53:20 23° E 00:55:28 28° ENE 01:00:37 10° N visible
15 Oct 2.4 02:38:29 52° WSW 02:39:02 53° W 02:45:12 10° NNW visible
